Eastsound, WA

11:57 PM PDT on August 22, 2017 (GMT -0700)
Orcas Island

Weather History for KORS - January, 2012

Change the Weather History Date:

Friday, January 13, 2012

  Actual Average (KFHR) Record (KFHR)
Temperature  
Mean Temperature 34 °F -  
Max Temperature 39 °F 43 °F 53 °F (2004)
Min Temperature 28 °F 35 °F 23 °F (2007)
Degree Days  
Heating Degree Days 32    
Moisture  
Dew Point 31 °F    
Average Humidity 90    
Maximum Humidity 100    
Minimum Humidity 75    
Precipitation  
Precipitation 0.00 in - - ()
Sea Level Pressure  
Sea Level Pressure 30.24 in    
Wind  
Wind Speed 1 mph (NNE)    
Max Wind Speed 7 mph    
Max Gust Speed -    
Visibility 9 miles    
Events      
Averages and records for this station are not official NWS values.
T = Trace of Precipitation, MM = Missing Value Source: NWS Daily Summary

Daily Weather History Graph

Daily Weather History Graph

Search for Another Location

Airport or City:

Trip Planner

Search our weather history database for the weather conditions in past years. The results will help you decide how hot, cold, wet, or windy it might be!

Date:

Astronomy

Jan. 13, 2012 Rise Set
Actual Time 8:00 AM PST 4:40 PM PST
Civil Twilight 7:24 AM PST 5:16 PM PST
Nautical Twilight 6:45 AM PST 5:55 PM PST
Astronomical Twilight 6:07 AM PST 6:33 PM PST
Moon 10:31 PM PST (1/13) 9:49 AM PST (1/13)
Length of Visible Light 9h 51m
Length of Day
8h 39m
Waning Gibbous, 77% of the Moon is Illuminated
Jan 13
Waning Gibbous
Jan 16
Last Quarter
Jan 22
New
Jan 30
First Quarter
Feb 7
Full

Hourly Weather History & Observations

Time (PST) Temp. Windchill Dew Point Humidity Pressure Visibility Wind Dir Wind Speed Gust Speed Precip Events Conditions
12:15 AM 32.0 °F - 30.2 °F 93% 30.31 in 9.0 mi Calm Calm - N/A   Clear
12:35 AM 28.4 °F - 28.4 °F 100% 30.31 in 10.0 mi Calm Calm - N/A   Clear
12:55 AM 30.2 °F - 30.2 °F 100% 30.31 in 10.0 mi Calm Calm - N/A   Clear
1:15 AM 30.2 °F - 30.2 °F 100% 30.31 in 10.0 mi Calm Calm - N/A   Clear
1:35 AM 30.2 °F - 30.2 °F 100% 30.31 in 5.0 mi Calm Calm - N/A   Clear
1:55 AM 28.4 °F - 28.4 °F 100% 30.32 in 5.0 mi Calm Calm - N/A   Clear
2:15 AM 28.4 °F - 28.4 °F 100% 30.32 in 8.0 mi Calm Calm - N/A   Clear
2:35 AM 30.2 °F - 30.2 °F 100% 30.33 in 10.0 mi Calm Calm - N/A   Scattered Clouds
2:55 AM 30.2 °F - 30.2 °F 100% 30.32 in 10.0 mi Calm Calm - N/A   Mostly Cloudy
3:15 AM 32.0 °F - 30.2 °F 93% 30.32 in 10.0 mi Calm Calm - N/A   Scattered Clouds
3:35 AM 30.2 °F - 30.2 °F 100% 30.33 in 7.0 mi Calm Calm - N/A   Clear
3:55 AM 30.2 °F - 28.4 °F 93% 30.32 in 7.0 mi Calm Calm - N/A   Clear
4:15 AM 30.2 °F - 30.2 °F 100% 30.33 in 5.0 mi Calm Calm - N/A   Clear
4:35 AM 28.4 °F - 28.4 °F 100% 30.32 in 7.0 mi Calm Calm - N/A   Clear
4:55 AM 30.2 °F - 28.4 °F 93% 30.32 in 5.0 mi Calm Calm - N/A   Clear
5:15 AM 28.4 °F - 28.4 °F 100% 30.31 in 5.0 mi Calm Calm - N/A   Clear
5:35 AM 30.2 °F - 28.4 °F 93% 30.31 in 7.0 mi Calm Calm - N/A   Partly Cloudy
5:55 AM 28.4 °F - 28.4 °F 100% 30.31 in 7.0 mi Calm Calm - N/A   Partly Cloudy
6:15 AM 30.2 °F - 30.2 °F 100% 30.31 in 6.0 mi Calm Calm - N/A   Mostly Cloudy
6:35 AM 32.0 °F - 32.0 °F 100% 30.32 in 6.0 mi Calm Calm - N/A   Mostly Cloudy
6:55 AM 30.2 °F - 30.2 °F 100% 30.31 in 7.0 mi Calm Calm - N/A   Mostly Cloudy
7:15 AM 32.0 °F - 32.0 °F 100% 30.32 in 7.0 mi Calm Calm - N/A   Overcast
7:35 AM 32.0 °F - 32.0 °F 100% 30.31 in 8.0 mi Calm Calm - N/A   Unknown
7:55 AM 32.0 °F - 32.0 °F 100% 30.31 in 9.0 mi Calm Calm - N/A   Mostly Cloudy
8:15 AM 32.0 °F - 32.0 °F 100% 30.30 in 7.0 mi Calm Calm - N/A   Mostly Cloudy
8:35 AM 32.0 °F - 32.0 °F 100% 30.30 in 8.0 mi Calm Calm - N/A   Scattered Clouds
8:55 AM 32.0 °F - 32.0 °F 100% 30.31 in 5.0 mi Calm Calm - N/A   Scattered Clouds
9:15 AM 35.6 °F - 35.6 °F 100% 30.31 in 10.0 mi Calm Calm - N/A   Mostly Cloudy
9:35 AM 37.4 °F 34.9 °F 33.8 °F 87% 30.30 in 10.0 mi NE 3.5 mph - N/A   Mostly Cloudy
9:55 AM 37.4 °F - 33.8 °F 87% 30.31 in 10.0 mi Calm Calm - N/A   Partly Cloudy
10:15 AM 37.4 °F 33.8 °F 33.8 °F 87% 30.31 in 10.0 mi ENE 4.6 mph - N/A   Clear
10:35 AM 37.4 °F 32.8 °F 32.0 °F 81% 30.30 in 10.0 mi ENE 5.8 mph - N/A   Clear
10:55 AM 37.4 °F - 32.0 °F 81% 30.29 in 10.0 mi North - - N/A   Clear
11:15 AM 37.4 °F - 32.0 °F 81% 30.28 in 10.0 mi Calm Calm - N/A   Clear
11:35 AM 37.4 °F 33.8 °F 32.0 °F 81% 30.27 in 10.0 mi NE 4.6 mph - N/A   Clear
11:55 AM 37.4 °F - 32.0 °F 81% 30.26 in 10.0 mi Calm Calm - N/A   Clear
12:35 PM 37.4 °F - 32.0 °F 81% 30.24 in 10.0 mi Calm Calm - N/A   Clear
12:55 PM 37.4 °F 34.9 °F 32.0 °F 81% 30.23 in 10.0 mi North 3.5 mph - N/A   Clear
1:15 PM 37.4 °F - 32.0 °F 81% 30.23 in 10.0 mi Calm Calm - N/A   Clear
1:35 PM 37.4 °F 34.9 °F 32.0 °F 81% 30.21 in 10.0 mi North 3.5 mph - N/A   Clear
1:55 PM 37.4 °F 34.9 °F 32.0 °F 81% 30.20 in 10.0 mi North 3.5 mph - N/A   Clear
2:15 PM 37.4 °F 34.9 °F 32.0 °F 81% 30.20 in 10.0 mi North 3.5 mph - N/A   Clear
2:35 PM 37.4 °F 34.9 °F 32.0 °F 81% 30.19 in 10.0 mi North 3.5 mph - N/A   Clear
2:55 PM 37.4 °F - 32.0 °F 81% 30.18 in 10.0 mi Calm Calm - N/A   Clear
3:15 PM 37.4 °F 33.8 °F 32.0 °F 81% 30.17 in 10.0 mi North 4.6 mph - N/A   Clear
3:35 PM 37.4 °F - 32.0 °F 81% 30.17 in 10.0 mi Calm Calm - N/A   Clear
3:55 PM 37.4 °F - 32.0 °F 81% 30.16 in 10.0 mi Calm Calm - N/A   Clear
4:35 PM 37.4 °F - 32.0 °F 81% 30.14 in 10.0 mi Calm Calm - N/A   Clear
4:55 PM 37.4 °F - 30.2 °F 75% 30.13 in 10.0 mi Calm Calm - N/A   Partly Cloudy
5:15 PM 35.6 °F - 32.0 °F 87% 30.13 in 10.0 mi Calm Calm - N/A   Partly Cloudy
5:35 PM 35.6 °F - 32.0 °F 87% 30.12 in 10.0 mi Calm Calm - N/A   Scattered Clouds
5:55 PM 35.6 °F - 32.0 °F 87% 30.12 in 10.0 mi Calm Calm - N/A   Partly Cloudy
6:15 PM 35.6 °F - 32.0 °F 87% 30.10 in 10.0 mi Calm Calm - N/A   Clear
6:35 PM 35.6 °F - 32.0 °F 87% 30.09 in 10.0 mi Calm Calm - N/A   Partly Cloudy
6:55 PM 35.6 °F - 32.0 °F 87% 30.09 in 10.0 mi Calm Calm - N/A   Mostly Cloudy
7:15 PM 35.6 °F - 32.0 °F 87% 30.10 in 10.0 mi Calm Calm - N/A   Overcast
7:35 PM 35.6 °F - 32.0 °F 87% 30.09 in 7.0 mi Calm Calm - N/A   Overcast
7:55 PM 35.6 °F - 32.0 °F 87% 30.08 in 9.0 mi Calm Calm - N/A   Mostly Cloudy
8:35 PM 39.2 °F 34.2 °F 35.6 °F 87% 30.10 in 10.0 mi North 6.9 mph - N/A   Overcast
8:55 PM 39.2 °F 35.9 °F 33.8 °F 81% 30.09 in 10.0 mi North 4.6 mph - N/A   Overcast
9:15 PM 39.2 °F - 33.8 °F 81% 30.09 in 10.0 mi Calm Calm - N/A   Mostly Cloudy
9:35 PM 39.2 °F - 33.8 °F 81% 30.09 in 10.0 mi Calm Calm - N/A   Mostly Cloudy
9:55 PM 39.2 °F - 33.8 °F 81% 30.08 in 10.0 mi Calm Calm - N/A Rain Light Rain
10:15 PM 37.4 °F - 33.8 °F 87% 30.08 in 6.0 mi Calm Calm - N/A Rain Light Rain
10:35 PM 37.4 °F - 33.8 °F 87% 30.07 in 6.0 mi Calm Calm - N/A Rain Light Rain
10:55 PM 37.4 °F - 33.8 °F 87% 30.06 in 5.0 mi Calm Calm - N/A Rain Light Rain
11:15 PM 35.6 °F - 33.8 °F 93% 30.06 in 5.0 mi Calm Calm - N/A Rain Light Rain
11:35 PM 35.6 °F 32.8 °F 33.8 °F 93% 30.05 in 3.0 mi ESE 3.5 mph - N/A Rain Light Rain
11:55 PM 35.6 °F - 33.8 °F 93% 30.04 in 3.0 mi Calm Calm - N/A Rain Rain